TimeCST,TemperatureF,Dew PointF,Humidity,Sea Level PressureIn,VisibilityMPH,Wind Direction,Wind SpeedMPH,Gust SpeedMPH,PrecipitationIn,Events,Conditions,WindDirDegrees,DateUTC
12:53 AM,48.0,26.1,42,29.89,10.0,NW,11.5,19.6,N/A,,Clear,310,2013-02-26 06:53:00
1:53 AM,46.0,27.0,47,29.91,10.0,NW,10.4,-,N/A,,Clear,310,2013-02-26 07:53:00
2:53 AM,45.0,26.1,48,29.91,10.0,WNW,6.9,-,N/A,,Clear,300,2013-02-26 08:53:00
3:53 AM,44.1,27.0,51,29.90,10.0,NW,6.9,-,N/A,,Clear,320,2013-02-26 09:53:00
4:53 AM,43.0,26.1,51,29.89,10.0,WNW,5.8,-,N/A,,Clear,300,2013-02-26 10:53:00
5:53 AM,43.0,24.1,47,29.92,10.0,NW,5.8,-,N/A,,Clear,310,2013-02-26 11:53:00
6:53 AM,36.0,26.1,67,29.96,10.0,West,5.8,-,N/A,,Clear,260,2013-02-26 12:53:00
7:53 AM,41.0,27.0,57,29.97,10.0,WNW,3.5,-,N/A,,Clear,300,2013-02-26 13:53:00
8:53 AM,48.9,25.0,39,29.98,10.0,North,9.2,19.6,N/A,,Clear,350,2013-02-26 14:53:00
9:53 AM,52.0,25.0,35,29.98,10.0,NNW,9.2,-,N/A,,Clear,330,2013-02-26 15:53:00
10:53 AM,55.0,25.0,31,29.98,10.0,North,6.9,-,N/A,,Clear,350,2013-02-26 16:53:00
11:53 AM,57.9,26.1,30,29.96,10.0,Calm,Calm,-,N/A,,Clear,0,2013-02-26 17:53:00
12:53 PM,62.1,26.1,25,29.93,10.0,SW,8.1,-,N/A,,Clear,220,2013-02-26 18:53:00
1:53 PM,62.1,25.0,24,29.90,10.0,SW,11.5,-,N/A,,Clear,220,2013-02-26 19:53:00
2:53 PM,63.0,23.0,22,29.87,10.0,SSW,10.4,-,N/A,,Clear,210,2013-02-26 20:53:00
3:53 PM,64.0,23.0,21,29.85,10.0,South,10.4,-,N/A,,Clear,190,2013-02-26 21:53:00
4:53 PM,64.0,23.0,21,29.86,10.0,SW,6.9,-,N/A,,Clear,230,2013-02-26 22:53:00
5:53 PM,61.0,24.1,24,29.86,10.0,SSW,4.6,-,N/A,,Clear,210,2013-02-26 23:53:00
6:53 PM,57.0,28.0,33,29.87,10.0,South,3.5,-,N/A,,Clear,180,2013-02-27 00:53:00
7:53 PM,55.9,28.0,34,29.86,10.0,Calm,Calm,-,N/A,,Clear,0,2013-02-27 01:53:00
8:53 PM,54.0,25.0,33,29.88,10.0,SSE,3.5,-,N/A,,Clear,160,2013-02-27 02:53:00
9:53 PM,48.0,32.0,54,29.89,10.0,Calm,Calm,-,N/A,,Clear,0,2013-02-27 03:53:00
10:53 PM,44.1,28.9,55,29.88,10.0,Calm,Calm,-,N/A,,Clear,0,2013-02-27 04:53:00
11:53 PM,46.9,28.0,48,29.88,10.0,SE,4.6,-,N/A,,Clear,140,2013-02-27 05:53:00